Zurück zum Katalog

COSMOS 2023

GLONASS

AktivNavigationMEO
NORAD 20025·PAYLOAD·🇷🇺 Russia

Gestartet May 31, 1989 von Baikonur Cosmodrome

Loading…

Nächste Überflüge (nächste 24 Stunden)

TLE

AktuellSource: Space-Track

Epoche: Sep 14, 2026, 19:05 UTC

1 20025U 89039B   26257.79564103 -.00000049  00000-0  00000-0 0  9999
2 20025  64.9018 308.0959 0021593 199.7704 160.5722  2.13104152290171

Verfolge COSMOS 2023 in Echtzeit mit AllMySat

Download on the App Store